DECAYED

STARLINK-1940, 47552 (Decayed)

Orbit data source: Space-Track

STARLINK-1940, 47552 was a payload satellite owned by SpaceX/Seattle (US) in LEO that was launched on Thu, 04 Feb 2021 UTC via an FALCON 9 launch vehicle from the Air Force Eastern Test Range (AFETR). Payload-class satellites include a variety of spacecraft equipped with specific instruments for various scientific and technological missions. These include communications satellites like Starlink; space stations such as the ISS; scientific satellites like the Hubble; Earth observation satellites from companies like Planet Labs, Umbra, and HawkEye 360; GPS; miniature CubeSats for education and research; and military/defense satellites.

Not visible in the next 10 days
Identifier
47552, 2021-009E
Orbit
Decayed
Country
Flag of USUS
Related business
Manufacturer
SpaceX/Seattle
Mission
Decayed Commercial Communications
Bus & Motor
STARLINK, Unknown motor
Mass
260 kg wet, ~248 kg dry
Launch date (UTC)
2021-02-04 (5 years ago)
Launch vehicle
FALCON 9
Launch site
Air Force Eastern Test Range (AFETR)
Object type
Payload
Rocket body
Debris
Shape & HBR
Box + 1 Pan, 10.1 m
Radar Cross Section
13.562 m², Large (>1 m²)

Expand to show TLE details & history
Last TLE update: 11 months ago

TLE from 11 months ago
0 STARLINK-1940
1 47552U 21009E   25211.18035347  .12393454  12451-4  55031-3 0  9992
2 47552  53.0279 238.1402 0002242 254.1474 225.8446 16.43571281248720
Epoch: 2025-07-30T04:19Z
TLE epoch observation values (Epoch: 2025-07-30T04:19:42.539Z)
Latitude
43.94017°
Longitude
-1.00936°
Altitude
161.741 km
Speed
7.814 km/s
True Right ascension
00h 47m 55s
True Declination
43° 45' 10"
Sunlit
Object was in daylight at epoch
Visualization orbit readout
Latitude
Unknown
Longitude
Unknown
Altitude
Unknown
Speed
Unknown
Apparent Right ascension
Unknown
Apparent Declination
Unknown
Sunlit
N/A
Visualization observer readout
Local Sidereal Time
21:37:38
Azimuth
Unknown
Elevation
Unknown
Doppler factor
Unknown
Orbital elements
Apogee altitude
158.076 km
Perigee altitude
155.145 km
Semi-major axis
6,534.748 km
Eccentricity
0.00022
Inclination
53.0279°
RAAN
238.1402°
Arg. of periapsis
254.1474°
True anomaly
225.82617°
Mean anomaly
225.8446°
Eccentric anomaly
225.83539°
Mean motion
4.10866 °/min
Orbital period
87.62 mins
BSTAR
0.00055031
Loading maneuver chart data...
Computing Atmospheric mass density...

Documentation

Showing up to 5 results
|